sat.trackr.live / text

‹ back to catalog

STARLINK-36101

NORAD 66867 · 2025-281V

PAYLOAD ACTIVE UNKNOWN

§ Identity

Operator
Country
US
Launch date
2025-12-02
Launch site
AFETR
Launch vehicle
Mass (kg)
RCS (m²)

Purposes: comms

External: N2YO · Heavens-Above · Gunter

§ Orbital elements

Epoch: 2026-09-20T21:10:52.805568Z

Period
94.27 min
Inclination
42.9990°
Eccentricity
0.0000648
Mean motion
15.27588290 rev/d
Perigee alt
482.6 km
Apogee alt
483.5 km
Semi-major
6,861.2 km
B*
2.1600e-4
RAAN
321.4811°
Arg perigee
269.2577°
Mean anomaly
90.8201°
Rev number
4,602

§ Raw data

STARLINK-361011 66867U 25281V   26263.88255562  .00005688  00000+0  21600-3 0  99992 66867  42.9990 321.4811 0000648 269.2577  90.8201 15.27588290 46023

JSON: /api/v1/satellites/66867 · /tle

For live sub-satellite position, see the globe view (requires WebGL).

§ Visibility from observer

Set your observer location to see the next 7 days of passes ≥ 10°. The values pass through the URL so the page stays shareable.

No JS? Fill the form by hand. The geolocation button needs JavaScript.